This is the latest recevied weather packets stored in our database for station/object WL7CLI. If no packets are shown the sender has not sent any weather packets the latest 10 day(s).
| Time | Temp. | Humidity | Pressure | Rain* | Wind** | Luminosity | Snow |
|---|---|---|---|---|---|---|---|
| 1788038884 | 28.33° C | 68% | 1011.1 hPa | 0 mm | - | - | - |
| 1788038398 | 28.33° C | 68% | 1009.8 hPa | 0 mm | - | - | - |
| 1788038199 | 28.33° C | 68% | 1009.7 hPa | 0 mm | - | - | - |
| 1788038107 | 28.33° C | 68% | 1009.8 hPa | 0 mm | - | - | - |
| 1788037083 | 27.78° C | 67% | 1011.4 hPa | 0 mm | - | - | - |
| 1788037001 | 27.78° C | 67% | 1010.1 hPa | 0 mm | - | - | - |
| 1788036907 | 27.78° C | 67% | 1010.1 hPa | 0 mm | - | - | - |
| 1788035800 | 27.78° C | 65% | 1010.2 hPa | 0 mm | - | - | - |
| 1788035706 | 27.78° C | 66% | 1010.2 hPa | 0 mm | - | - | - |
| 1788035283 | 27.78° C | 67% | 1011.8 hPa | 0 mm | - | - | - |
| 1788034806 | 27.22° C | 68% | 1010.6 hPa | 0 mm | - | - | - |
| 1788034600 | 27.78° C | 67% | 1010.5 hPa | 0 mm | - | - | - |
| 1788034513 | 27.22° C | 68% | 1010.6 hPa | 0 mm | - | - | - |
| 1788033484 | 27.22° C | 66% | 1012.5 hPa | 0 mm | - | - | - |
| 1788033400 | 27.22° C | 67% | 1011 hPa | 0 mm | - | - | - |
| 1788033308 | 27.22° C | 66% | 1011.1 hPa | 0 mm | - | - | - |
| 1788032249 | 26.11° C | 69% | 1011.3 hPa | 0 mm | - | - | - |
| 1788032200 | 26.11° C | 69% | 1011.3 hPa | 0 mm | - | - | - |
| 1788032107 | 26.11° C | 69% | 1011.3 hPa | 0 mm | - | - | - |
| 1788031683 | 25.56° C | 70% | 1012.7 hPa | 0 mm | - | - | - |
| 1788031229 | 25° C | 73% | 1011.4 hPa | 0 mm | - | - | - |
| 1788031000 | 25° C | 73% | 1011.4 hPa | 0 mm | - | - | - |
| 1788030906 | 25° C | 73% | 1011.4 hPa | 0 mm | - | - | - |
| 1788029983 | 24.44° C | 74% | 1011.4 hPa | 0.25 mm | - | - | - |
| 1788029883 | 24.44° C | 74% | 1012.8 hPa | 0 mm | - | - | - |
* Rain latest hour (hover to see other rain measurements)
** Current wind speed in m/s (hover to see current wind gust speed)